Theta_e
307 307 307 306 305 305 307 306 306 306 306 305 304 303 301 301 298 295 297 298 299 300 301 299 301 304 305 305 306 306 306 306 306 305 306 306 307 306 304 304 304 304 304 303 302 302 301 302 302 303 303 303 303 303 302 302 302 302 303 304 305 305 303 303 303 304 305 307 307 306 306 307 310 311
307 307 307 306 304 306 306 305 306 306 306 304 303 303 303 301 298 298 296 298 300 299 302 302 300 303 304 305 306 306 306 307 305 305 305 306 307 305 304 304 303 303 303 302 300 299 300 301 301 302 302 302 302 302 302 301 302 301 303 303 304 302 301 301 302 303 305 305 305 305 306 307 308 309
307 306 306 306 305 306 306 306 305 305 305 304 303 303 304 303 302 300 299 296 300 302 300 302 304 303 304 305 305 305 305 306 305 306 306 306 306 307 306 305 304 303 303 301 302 302 301 300 300 301 301 301 301 302 302 302 301 303 303 301 301 301 301 301 302 303 304 305 305 305 306 306 307 307
306 305 304 305 305 305 305 305 305 304 305 305 303 303 303 302 303 302 299 298 298 302 301 302 304 304 304 304 303 304 305 305 306 306 305 306 306 305 305 305 305 304 302 301 301 300 300 300 300 301 301 301 302 302 301 301 302 302 300 300 300 300 300 301 301 303 304 304 305 305 305 305 305 305
306 304 303 303 304 305 305 304 304 303 303 303 303 303 302 301 302 301 300 298 298 302 304 303 303 304 305 303 305 303 304 304 305 305 306 306 306 305 306 306 305 303 302 300 299 299 299 299 301 301 301 301 301 301 300 300 301 300 300 299 299 299 300 300 300 301 303 303 303 303 303 304 304 304
305 305 304 304 305 305 304 304 303 303 302 301 301 302 302 301 301 303 300 299 299 298 302 302 304 303 305 302 304 303 303 303 304 303 304 306 306 305 306 306 306 303 302 300 300 300 300 299 300 300 299 298 298 299 299 298 298 299 299 296 295 299 300 301 300 300 301 301 302 302 302 303 303 304
305 304 305 305 305 306 305 304 304 304 303 303 302 302 302 302 302 303 303 301 299 299 300 303 302 303 304 303 302 304 304 304 304 303 304 304 304 305 305 305 305 302 301 301 300 300 300 299 299 298 299 298 298 298 298 298 298 298 298 297 298 298 298 299 299 299 300 301 301 301 301 302 303 304
304 304 304 305 306 305 304 303 303 303 303 303 302 301 302 302 301 303 304 303 301 300 299 302 301 303 302 303 303 303 303 303 303 303 304 304 304 304 303 303 304 303 302 301 301 301 300 299 299 298 298 298 298 298 298 298 298 297 298 298 298 298 297 297 297 297 299 299 300 300 300 301 302 304
304 304 304 305 305 305 304 303 302 303 303 303 302 301 301 301 302 303 303 303 303 301 300 301 303 304 303 304 304 304 301 302 303 304 303 302 303 304 304 305 304 304 302 302 302 301 300 299 299 298 298 298 298 297 297 298 298 298 299 298 298 298 297 297 297 298 298 298 298 300 301 300 302 303
305 305 305 305 305 303 303 302 302 303 302 302 302 301 301 301 302 303 303 303 303 302 300 301 301 303 302 302 302 303 302 301 300 301 302 303 304 304 303 303 304 305 304 305 303 302 300 300 299 299 299 298 297 298 298 298 299 299 299 299 298 298 298 297 297 297 297 298 298 298 300 300 300 302
305 305 305 305 304 302 302 301 301 301 301 301 301 301 301 301 301 302 301 302 301 301 301 301 301 301 302 302 299 301 303 302 301 300 299 300 302 303 302 301 302 304 304 303 300 300 300 301 302 299 298 298 299 299 299 300 300 300 300 299 298 298 297 297 297 297 297 297 297 297 297 298 299 301
305 305 305 304 302 301 300 300 300 299 298 300 300 300 300 301 301 300 300 300 299 300 300 299 299 300 300 300 301 302 302 300 300 301 300 298 299 300 302 302 301 302 302 301 302 301 301 301 301 299 300 300 300 300 300 301 301 302 300 298 297 297 296 297 297 297 297 297 297 297 297 296 297 299
305 305 304 303 302 301 299 298 299 297 297 299 298 299 300 300 300 300 300 299 298 299 299 299 300 299 299 299 299 298 298 297 297 299 301 299 300 300 300 301 303 302 301 301 300 300 301 300 300 301 300 301 301 301 300 301 302 300 298 297 297 297 297 297 297 297 297 297 297 297 297 297 297 296
304 304 304 301 302 301 300 298 296 295 295 295 297 298 299 298 298 298 298 297 298 298 297 298 298 297 297 297 299 298 298 299 300 299 299 298 299 300 300 301 302 302 301 299 299 300 301 300 299 299 299 300 301 301 301 302 300 298 297 297 297 297 297 297 297 297 297 297 297 297 297 297 297 296
304 305 305 305 303 305 303 302 294 295 294 294 294 294 295 295 298 297 296 296 298 296 297 299 298 297 297 298 299 298 298 299 299 298 299 299 299 297 296 295 300 303 300 298 297 297 301 300 298 298 299 299 300 300 301 298 298 297 297 296 297 297 297 297 297 296 296 296 296 296 296 296 297 296
305 305 305 304 304 301 301 303 303 300 295 293 293 293 292 292 293 294 296 296 296 297 297 298 298 298 297 297 298 297 298 297 298 299 299 299 298 297 296 296 296 300 301 298 296 296 299 300 298 297 299 299 300 300 298 297 297 296 296 296 296 296 296 296 296 296 296 296 296 296 296 296 296 295
306 305 305 305 305 303 301 301 301 302 302 297 294 294 295 292 292 290 290 292 298 299 299 298 297 298 297 297 297 299 298 299 298 298 297 298 298 298 297 297 297 299 301 298 295 294 297 298 296 295 298 299 300 299 298 297 296 296 296 296 296 296 296 296 296 296 295 295 295 295 295 295 295 295
306 305 305 305 304 305 303 300 300 301 302 303 303 303 303 303 300 293 291 291 291 296 299 299 297 299 300 297 298 300 300 298 297 297 297 299 298 298 297 300 300 301 301 297 294 293 295 297 296 296 298 299 298 299 298 296 296 296 296 296 295 295 295 296 296 296 295 295 295 295 295 295 295 295
307 305 304 305 304 304 302 298 298 301 302 304 303 303 303 303 303 303 301 300 299 299 299 299 299 299 300 300 300 300 300 300 300 299 299 300 300 300 301 301 301 301 302 300 296 291 294 297 295 295 296 298 298 299 297 297 296 296 296 295 295 295 295 295 295 295 295 295 295 295 294 294 294 294
306 305 306 305 303 304 302 296 287 294 300 304 302 302 303 303 304 304 301 295 296 301 301 300 300 300 300 296 300 301 300 300 301 300 302 302 301 298 297 296 298 298 300 301 296 293 293 297 294 294 297 297 296 297 299 297 297 296 295 295 295 295 296 295 295 295 295 295 295 295 295 294 294 294
306 305 305 304 303 303 302 295 290 291 292 303 302 301 303 303 303 302 303 297 294 293 292 292 292 292 291 292 292 292 292 297 300 300 299 298 298 296 294 296 296 296 298 301 299 295 293 295 295 293 294 294 294 296 297 298 296 295 295 295 295 295 295 296 296 296 295 295 295 295 295 294 294 294
305 305 304 306 303 303 302 289 290 289 297 303 302 302 302 301 301 301 302 303 303 297 295 295 293 293 293 292 293 294 294 293 297 300 297 299 298 297 297 294 296 297 299 300 301 295 293 295 295 292 293 293 295 295 296 295 296 295 295 295 294 295 295 295 296 296 296 296 295 295 295 294 295 298
305 304 301 301 302 304 300 285 291 288 295 302 302 302 302 300 300 300 301 301 301 302 303 304 304 302 300 302 302 301 295 294 299 302 301 300 298 296 296 296 296 295 297 300 301 294 293 293 294 292 289 288 291 293 293 294 294 295 295 295 294 295 295 295 296 296 296 296 295 295 295 294 294 299
305 303 303 300 289 289 288 289 288 290 289 298 301 303 302 300 298 299 300 301 301 302 302 303 303 303 303 302 302 302 301 301 301 302 302 301 299 299 298 298 297 295 295 300 301 296 295 295 292 293 291 287 285 289 292 292 293 294 294 293 293 294 295 296 297 297 297 296 296 295 295 295 295 300
303 303 303 303 293 289 290 289 288 290 289 290 300 302 301 299 299 294 299 300 299 303 303 303 302 302 302 301 301 300 300 299 300 301 302 301 301 300 299 297 297 297 298 301 297 298 294 295 293 293 292 290 289 288 290 291 292 292 293 292 292 293 295 298 297 300 299 297 295 295 294 294 294 297
303 303 303 305 295 289 290 289 290 288 289 288 299 307 291 288 288 298 298 301 302 302 302 301 300 300 300 299 300 299 299 299 300 301 301 301 302 302 302 300 298 294 296 300 296 299 296 294 294 292 290 288 288 289 287 288 290 291 292 292 292 293 296 296 296 298 300 303 305 299 298 294 295 294
303 304 304 304 291 290 289 290 289 290 289 290 299 289 288 289 288 291 300 302 302 301 301 301 300 299 299 299 299 299 299 300 302 301 301 301 301 302 302 303 303 301 300 301 302 300 298 296 297 294 289 289 287 287 287 285 286 290 291 291 292 293 296 295 294 296 297 300 303 298 296 295 293 294
302 303 304 302 289 290 289 288 289 289 290 296 291 288 289 288 289 298 302 301 302 300 299 299 299 299 299 300 299 299 301 300 301 301 301 301 301 301 302 303 302 303 302 301 301 300 299 297 296 297 294 290 287 285 284 288 288 289 289 291 292 293 294 294 295 295 296 298 302 305 303 301 301 299
303 294 288 286 288 289 289 288 288 290 290 287 288 288 288 291 300 302 301 300 301 299 298 298 299 300 300 300 300 302 302 303 302 301 301 301 301 301 302 302 303 303 303 303 301 300 299 298 297 296 295 293 289 288 287 285 287 288 289 288 288 291 292 293 293 294 295 299 304 306 306 306 303 302
286 288 290 286 286 287 290 297 300 301 303 293 289 289 291 302 301 301 300 301 298 298 298 298 299 299 301 300 302 303 302 301 300 300 299 298 298 299 299 299 300 302 303 303 302 300 300 300 299 297 295 294 292 290 289 287 287 289 289 288 289 291 292 292 293 294 294 297 300 301 303 305 305 303
297 296 296 298 294 294 290 291 292 294 295 297 299 300 301 302 301 302 300 299 299 298 299 298 299 300 301 302 302 300 300 299 300 301 298 298 298 298 298 297 298 298 301 303 302 301 300 301 300 299 295 294 293 292 291 290 288 288 289 289 289 286 289 291 292 292 293 297 299 298 298 299 301 300
299 300 295 294 299 301 300 300 300 300 301 300 300 302 301 301 301 300 296 296 301 302 300 300 300 300 301 300 300 300 299 298 299 301 299 298 297 297 298 296 295 296 299 301 301 302 298 301 300 299 298 296 292 292 293 291 289 288 288 289 289 289 290 290 291 292 293 295 296 295 295 295 295 297
301 300 299 299 299 299 298 300 301 302 301 302 302 302 302 302 301 302 300 301 299 300 299 298 299 298 299 299 300 299 299 299 298 301 300 300 299 298 298 295 294 295 296 297 299 300 300 300 300 299 299 300 299 296 293 290 290 290 288 288 288 287 289 290 291 291 292 291 292 293 293 293 293 294
298 298 297 299 298 300 299 298 298 299 301 300 300 301 296 299 301 300 299 300 300 299 298 300 298 299 296 298 299 298 298 298 299 299 296 299 299 297 296 295 295 296 296 297 297 298 297 297 299 299 300 301 300 297 295 291 290 290 290 289 288 287 288 290 291 291 291 290 291 291 291 291 291 292
293 295 296 296 298 296 299 297 296 297 296 296 297 299 299 300 299 293 300 301 300 297 295 296 299 299 297 297 299 298 297 298 298 300 299 299 299 298 296 295 293 296 296 296 297 298 297 296 294 293 295 297 297 299 296 294 292 290 291 290 289 287 287 289 290 291 291 290 290 288 289 290 291 291
293 295 295 296 297 298 297 297 296 296 298 298 298 296 297 297 297 297 297 299 300 299 298 297 296 297 298 298 297 298 297 295 298 298 297 298 297 296 298 296 295 296 297 296 297 298 298 297 295 292 291 291 291 290 291 293 292 292 289 288 288 287 287 289 290 291 290 289 290 288 286 287 289 291
293 295 297 298 299 298 296 299 299 299 300 299 300 300 298 296 298 300 301 301 300 298 299 296 298 298 297 297 296 295 296 296 295 295 296 298 297 296 296 294 294 295 296 297 297 298 298 297 295 294 291 290 289 288 290 294 292 292 292 290 288 287 287 287 288 288 289 289 288 288 287 287 288 291
293 296 296 297 298 298 299 299 299 299 299 300 300 299 299 300 300 301 302 301 299 298 298 298 297 297 298 297 297 297 297 297 297 295 296 297 295 294 295 294 295 296 296 297 297 297 298 297 295 295 292 290 289 289 289 292 294 293 291 292 288 288 288 287 286 286 286 288 287 288 290 287 288 290
295 296 296 296 297 297 298 298 298 298 301 300 299 299 299 300 300 301 300 299 300 298 299 299 298 297 297 299 297 296 296 296 296 295 296 295 297 295 295 294 294 296 296 295 297 297 297 296 296 296 294 292 290 291 292 291 291 294 291 291 291 289 287 287 286 286 286 286 287 289 290 293 293 290
295 295 296 296 296 298 298 299 299 299 300 300 300 300 299 298 299 299 298 297 299 296 299 297 297 297 298 297 297 298 298 298 295 296 296 296 295 295 295 294 294 295 294 294 294 296 296 296 296 296 296 296 294 295 295 294 294 296 294 291 290 291 290 289 286 286 285 286 287 287 287 289 287 289
296 296 296 296 296 297 298 298 299 300 300 301 301 298 300 300 299 298 299 298 296 298 297 297 296 298 297 298 297 297 296 296 296 296 296 295 294 294 292 291 294 295 293 293 294 294 295 298 296 289 296 298 297 299 295 292 291 291 292 292 289 290 290 291 291 287 286 287 287 286 286 286 286 286
298 298 298 298 297 298 297 298 299 300 301 300 301 299 300 299 298 295 297 295 297 296 298 297 298 297 298 298 298 297 297 296 296 295 295 295 295 294 293 294 294 293 293 293 293 295 298 300 300 299 299 296 295 292 291 290 290 292 292 293 293 289 289 289 289 290 292 290 287 285 285 286 287 285
299 299 298 298 297 298 298 298 299 300 300 300 299 300 298 297 297 297 297 296 297 298 298 298 298 298 298 299 298 298 297 296 296 296 295 295 295 294 294 295 294 295 295 294 296 295 296 299 300 297 296 295 294 293 291 291 292 292 292 293 293 295 292 289 289 289 289 289 289 288 288 286 284 282
301 300 299 298 298 297 298 298 299 299 300 300 299 297 298 297 296 297 297 297 298 298 298 298 298 298 298 298 298 298 298 297 297 296 295 295 295 295 295 294 294 294 295 295 295 295 296 296 297 297 295 294 294 293 292 291 292 293 293 293 293 293 294 294 293 289 289 288 288 288 288 288 287 287
302 301 300 298 297 296 297 298 300 300 300 299 297 298 298 297 296 297 297 297 297 297 297 298 298 298 298 298 298 297 297 295 296 296 296 296 296 296 295 295 295 294 294 295 295 294 295 295 296 296 295 295 294 293 293 292 292 293 293 292 292 293 294 294 293 294 294 293 289 288 288 288 288 288
Wind_Speed
8 7 8 7 6 6 6 6 5 5 5 5 5 6 7 7 6 7 8 7 8 10 11 10 10 11 11 11 11 12 12 13 15 16 15 15 14 16 21 22 19 17 15 16 15 15 15 17 19 24 26 26 25 24 24 23 22 21 20 21 21 20 20 20 19 20 19 19 19 17 17 18 18 17
7 7 7 6 6 6 6 6 5 5 4 5 5 5 5 6 6 6 7 7 6 9 9 9 10 11 12 11 11 11 12 13 16 16 16 15 14 18 24 19 8 10 14 13 11 12 14 16 19 23 24 24 25 26 25 24 24 23 22 20 21 20 20 20 20 21 21 19 18 18 17 18 18 17
7 7 7 6 6 6 6 5 4 5 5 5 5 4 4 4 5 6 6 7 5 7 9 9 10 11 13 12 12 11 12 13 16 16 15 15 16 21 17 11 10 10 11 9 11 15 16 16 17 20 22 24 27 26 26 25 25 25 23 22 21 21 20 20 19 21 23 21 19 18 18 18 17 18
7 8 8 7 6 5 4 5 5 4 4 4 4 4 4 3 4 4 5 7 9 7 8 10 11 12 12 13 13 13 12 12 16 16 15 16 17 15 17 23 26 13 9 10 11 17 19 18 19 19 23 25 26 26 24 23 23 22 21 18 19 21 20 19 20 21 22 23 21 19 18 18 18 18
7 7 8 8 7 6 5 5 4 4 4 3 3 4 3 3 3 4 5 7 9 8 7 8 10 11 11 12 12 14 14 14 15 16 15 16 14 14 16 17 19 17 13 12 16 17 18 17 18 20 20 22 22 21 20 20 20 20 19 16 15 18 21 21 19 20 21 22 22 21 20 18 17 18
6 6 7 7 6 5 6 5 6 5 5 4 5 4 4 4 4 4 5 6 7 10 9 8 9 10 11 12 12 14 15 16 16 18 15 13 14 13 15 15 16 15 15 17 17 16 15 15 16 18 19 19 19 18 18 18 17 17 17 15 14 16 21 21 21 19 20 21 21 20 20 19 18 17
7 7 6 6 5 4 5 4 5 5 4 4 5 5 4 3 4 4 4 6 8 10 10 9 10 10 11 11 13 14 13 14 15 17 16 15 14 14 14 15 15 18 18 17 14 13 13 15 18 19 18 17 17 16 16 16 16 16 16 15 14 15 17 18 16 18 19 20 21 20 19 19 18 18
6 6 6 5 5 4 5 5 4 5 5 4 5 5 4 4 5 5 5 5 7 8 10 10 10 10 11 11 12 12 13 14 15 14 15 15 14 15 16 17 16 17 17 15 15 15 15 17 16 16 18 18 16 15 16 16 15 15 15 14 14 13 16 16 15 15 16 19 21 21 20 19 20 19
6 6 6 5 5 5 5 5 5 5 6 5 5 6 5 5 5 5 5 6 7 8 9 10 9 10 10 11 12 13 15 14 14 14 15 16 15 14 15 15 15 20 20 19 19 18 18 19 20 20 19 17 17 17 17 15 15 15 14 13 12 13 14 15 14 14 15 15 17 20 20 20 20 19
5 5 5 5 5 5 5 5 5 5 6 5 5 6 6 6 6 6 6 6 7 8 9 9 10 10 11 11 11 14 14 15 15 14 14 15 14 14 14 16 15 16 16 15 17 19 20 22 20 18 17 17 17 16 14 14 14 14 14 12 11 11 12 14 14 13 14 14 16 17 18 19 19 19
6 5 5 5 5 6 6 5 6 6 5 4 5 6 6 7 7 7 7 7 8 8 9 9 9 10 10 11 13 13 14 14 14 16 16 14 14 15 15 18 17 16 17 19 19 19 19 19 18 18 17 17 15 13 14 16 15 13 12 8 7 8 9 12 14 14 14 14 15 16 15 15 17 19
5 5 5 6 6 6 6 6 6 6 5 5 5 5 6 6 7 7 7 7 8 8 8 9 10 10 11 11 11 12 13 14 13 13 14 16 16 16 15 16 17 16 17 18 18 19 19 20 21 20 19 18 16 16 16 15 16 10 5 1 7 9 11 14 16 17 16 16 15 16 16 14 13 16
5 6 5 5 6 6 6 5 4 4 4 5 5 5 6 6 6 6 7 7 8 8 8 9 9 10 10 11 13 14 14 15 16 16 15 14 14 15 16 15 16 17 19 19 20 18 18 19 18 18 17 17 19 18 16 15 13 11 16 16 13 13 14 15 17 17 17 16 16 16 17 15 13 13
5 5 6 6 7 6 6 6 5 4 1 2 4 5 5 6 6 7 7 7 8 8 8 9 10 11 11 12 13 14 14 15 15 16 16 16 15 15 14 13 13 15 18 19 19 19 17 18 18 18 17 16 17 15 15 13 16 18 17 15 13 14 15 16 17 18 18 17 16 16 17 16 14 13
5 4 5 6 7 8 9 7 7 5 6 6 5 6 6 5 5 6 7 7 7 8 8 8 9 10 12 13 13 13 15 15 15 15 16 15 15 15 17 18 14 14 18 19 20 20 18 18 19 18 17 16 15 16 15 19 19 16 17 19 20 18 16 16 16 17 17 17 16 15 16 17 15 14
5 5 4 3 3 4 4 1 6 8 7 4 7 9 10 9 7 5 4 6 7 8 8 8 9 10 11 12 12 13 14 15 15 15 15 14 15 17 17 16 17 17 18 17 17 18 18 17 18 17 16 16 16 16 17 16 14 17 19 19 19 18 15 15 15 16 16 16 15 14 15 16 15 14
4 4 4 4 3 3 6 4 2 2 3 9 9 10 12 13 11 11 9 8 4 6 7 8 9 10 11 12 12 13 15 15 16 15 14 14 15 15 16 17 19 20 17 16 16 18 19 19 18 17 16 17 16 16 17 17 18 17 17 17 16 15 15 14 16 16 16 15 14 14 14 15 15 14
4 3 3 4 4 3 3 4 2 2 2 3 2 2 4 2 7 11 11 8 11 7 6 8 9 10 10 10 11 13 14 15 15 15 15 15 15 17 17 18 17 17 12 10 14 17 19 19 18 18 18 17 16 16 17 17 16 15 16 16 17 18 18 16 16 17 17 15 14 13 14 14 14 14
4 3 2 2 3 3 3 4 4 4 3 2 2 3 4 3 3 5 7 8 7 6 6 7 8 9 9 9 11 12 12 13 13 14 16 16 15 16 15 12 13 15 14 9 11 17 20 18 18 19 18 17 18 16 17 16 15 17 20 21 21 22 21 18 17 17 17 16 13 13 13 14 14 13
5 4 4 3 3 3 5 5 1 5 6 4 4 4 4 4 3 4 3 2 4 5 6 7 8 9 10 12 12 12 12 12 14 14 13 12 12 14 14 14 14 15 13 7 12 17 19 17 17 19 17 17 17 17 16 17 17 18 17 18 20 21 21 18 16 16 17 16 14 12 13 14 14 13
4 4 4 3 3 3 5 5 0 4 8 5 4 4 5 4 5 6 5 2 7 9 9 11 12 13 15 15 16 16 18 13 12 12 13 13 14 14 16 16 16 15 15 9 10 16 17 18 17 18 18 18 17 16 16 17 20 19 17 15 17 20 22 20 16 17 16 16 15 12 13 14 14 13
5 4 5 4 2 3 5 6 1 4 8 4 4 5 5 6 6 8 8 7 7 6 7 9 10 12 13 14 14 12 9 11 11 12 13 14 14 14 14 15 15 14 14 11 12 16 15 17 16 18 17 15 14 14 15 19 19 20 18 19 20 19 19 21 21 17 17 17 15 13 13 14 13 10
5 6 6 3 4 4 7 5 2 2 6 5 4 5 5 6 6 7 10 9 10 11 11 10 11 11 11 11 11 11 11 10 11 12 12 12 13 13 13 14 15 14 14 11 13 17 16 17 17 18 19 20 12 9 17 19 17 17 16 18 17 18 19 19 19 21 18 17 15 13 13 13 13 9
6 6 7 6 4 4 4 3 3 2 3 5 5 5 4 6 6 9 9 9 9 10 10 10 10 10 10 10 10 11 11 11 12 12 12 12 12 12 13 13 13 14 15 14 12 15 14 13 16 16 14 16 18 18 16 17 16 14 13 16 15 18 18 17 15 16 16 15 15 14 13 13 13 9
6 6 6 7 9 7 5 4 4 3 3 4 5 4 5 5 6 8 9 10 10 9 9 9 8 8 8 9 9 10 11 11 11 12 12 13 12 12 12 13 14 13 13 13 10 14 14 15 15 17 15 14 15 16 16 17 14 12 13 15 15 14 12 11 11 11 14 12 15 15 13 14 16 14
6 6 5 6 9 9 7 5 4 3 5 5 6 2 3 4 5 6 9 9 8 7 8 8 8 8 9 9 9 10 11 11 12 12 12 13 13 12 11 12 14 12 14 15 15 14 14 15 14 13 13 14 16 17 18 14 10 12 13 14 14 13 10 12 12 11 10 10 6 8 10 15 15 18
5 4 4 7 10 8 7 6 5 5 5 8 4 2 3 5 7 8 7 7 7 7 7 8 8 9 9 9 9 10 10 11 12 12 12 14 14 13 12 11 11 11 12 13 14 15 14 13 11 10 13 11 15 17 12 16 16 14 12 12 12 12 9 10 11 11 11 10 10 6 12 12 15 14
4 6 5 6 10 6 5 5 6 6 6 6 5 6 6 8 8 7 6 5 6 7 7 8 8 9 9 9 10 10 10 10 11 12 12 13 14 14 13 13 12 11 11 13 13 12 13 13 10 7 9 9 11 14 18 14 14 14 15 16 10 10 11 11 10 11 11 10 8 5 4 5 7 8
2 8 10 8 5 4 5 6 6 7 10 12 11 9 9 9 6 4 4 5 6 7 7 8 8 9 9 10 10 10 10 10 10 10 11 11 12 13 14 13 12 11 8 9 12 12 12 13 13 12 9 8 10 13 13 14 13 13 14 17 16 14 13 13 10 11 12 11 5 4 3 2 5 5
6 6 5 1 2 5 5 6 7 8 3 8 10 11 10 7 4 3 4 5 6 6 7 8 8 8 9 10 10 10 10 9 10 10 11 12 11 12 12 13 13 12 11 11 12 13 13 12 14 14 11 7 7 11 12 13 12 11 14 15 16 11 11 14 13 11 11 11 10 9 9 9 7 4
3 4 5 3 3 4 2 6 6 7 5 7 9 9 9 6 3 2 2 4 5 5 6 7 7 8 9 9 10 10 10 10 10 9 11 11 11 12 12 12 12 13 12 12 12 12 14 12 14 15 12 6 9 11 12 10 12 13 15 15 13 12 14 14 14 14 13 9 9 9 11 11 11 12
7 6 6 4 6 6 7 7 8 8 8 7 6 4 3 3 3 4 8 8 6 4 5 6 7 7 8 9 10 10 10 11 10 10 10 11 11 12 12 11 12 13 13 13 13 13 14 13 12 12 14 12 7 10 10 12 12 14 14 14 13 12 12 13 14 14 15 11 8 10 10 10 11 11
5 5 6 7 7 7 7 8 7 7 6 5 4 4 5 4 3 3 4 4 4 4 5 6 7 7 8 9 9 10 11 11 11 10 10 10 10 11 11 12 13 13 14 13 13 13 13 14 14 12 12 10 2 5 8 13 11 14 14 14 16 14 14 13 12 14 15 14 10 8 10 10 11 10
4 6 6 7 6 7 7 6 6 5 5 4 4 4 2 4 5 3 4 4 3 4 5 6 6 7 6 8 9 10 10 10 10 10 11 10 10 11 11 12 12 12 13 13 14 14 12 12 14 13 12 9 6 0 6 7 9 11 13 13 15 15 14 13 14 16 14 12 10 10 11 13 12 12
4 4 4 4 4 5 7 4 4 4 3 3 3 4 5 5 4 2 5 4 3 3 3 3 6 6 6 7 8 9 9 10 10 10 10 10 11 11 11 10 11 13 13 13 13 13 13 12 12 13 12 11 9 4 10 7 7 9 11 14 15 15 13 12 12 14 15 14 10 9 9 11 12 12
6 5 5 5 5 6 5 5 6 5 5 4 5 4 3 3 3 4 5 2 5 4 4 3 4 4 5 7 7 9 9 9 9 10 10 10 10 10 11 11 12 13 13 13 13 13 13 14 13 13 14 13 12 12 10 10 11 6 9 12 13 14 12 13 12 12 14 14 13 11 12 11 12 12
5 7 8 8 8 7 6 7 7 7 7 6 6 6 4 3 4 6 5 3 6 4 5 3 4 4 4 5 7 5 6 8 7 7 7 10 10 11 10 11 11 10 13 13 13 12 12 13 14 14 12 13 14 14 14 8 11 14 8 8 8 11 12 12 12 11 13 14 13 12 10 10 11 11
7 8 9 9 8 8 8 8 7 7 7 7 6 6 5 6 6 6 5 6 5 3 3 4 3 4 5 6 5 5 6 6 7 6 6 8 8 8 9 10 9 11 12 12 12 12 12 12 13 13 11 12 12 13 13 13 11 11 14 9 8 8 8 12 15 14 11 9 12 9 8 10 10 10
9 9 9 9 8 8 8 8 8 7 7 7 6 6 6 6 6 6 6 5 5 4 5 4 4 4 5 7 5 6 6 6 7 6 6 6 8 9 8 9 10 10 11 11 12 12 12 11 12 13 11 11 12 11 11 11 11 8 10 15 9 9 9 8 11 11 12 13 11 7 4 3 3 10
10 9 9 8 9 9 9 8 8 8 7 7 6 6 6 4 6 6 4 6 5 3 5 5 5 6 5 6 5 5 6 9 6 6 6 6 6 7 7 8 8 9 9 9 9 12 12 12 12 13 12 11 9 9 8 8 6 8 5 9 13 10 5 5 8 10 12 12 10 8 8 6 10 9
9 10 10 10 10 9 9 8 8 7 7 6 7 7 7 7 7 6 6 5 4 5 6 6 6 7 6 5 5 5 6 6 6 6 5 5 5 5 6 8 7 8 9 9 11 11 12 12 13 10 10 8 9 10 8 10 12 11 9 4 5 9 11 9 5 6 7 8 10 10 10 10 10 11
9 10 9 9 9 9 9 9 8 7 7 7 6 6 7 6 5 6 5 5 7 6 6 6 6 5 5 5 5 5 5 6 6 6 5 5 6 6 6 7 7 8 8 9 9 9 11 12 11 11 10 8 9 10 11 11 11 11 11 9 2 7 9 11 13 14 10 7 8 11 8 8 8 10
9 9 9 9 9 8 8 7 7 7 7 7 7 6 4 4 4 5 6 6 6 6 5 5 5 5 5 5 5 5 6 6 6 6 6 6 5 6 6 6 6 7 7 7 8 8 8 11 11 10 8 8 9 9 10 10 9 9 10 10 10 6 4 7 7 11 15 13 12 9 7 5 5 8
9 9 9 8 8 8 8 8 8 8 7 7 4 4 4 5 5 6 6 6 6 5 5 5 5 6 6 5 5 5 5 5 5 6 6 6 6 5 5 6 6 6 7 7 7 8 8 8 8 8 9 9 9 9 10 10 10 8 8 9 8 8 9 3 6 9 11 9 7 10 11 11 12 10
9 8 8 8 8 8 8 8 8 8 8 5 5 5 5 5 6 6 6 6 6 6 6 6 6 6 6 5 5 5 5 6 6 6 6 6 5 5 6 6 6 6 7 6 7 8 8 8 7 8 7 8 8 8 8 8 10 8 8 8 9 9 8 7 9 9 5 3 2 2 7 7 5 8
Wind_Direction
86 84 83 84 86 77 67 58 50 42 36 36 34 26 23 3 358 356 350 7 348 359 354 341 340 344 338 330 327 323 322 325 327 322 321 322 319 337 324 299 293 292 293 293 290 293 296 298 303 311 312 312 311 311 309 308 306 306 304 301 302 300 301 302 300 298 298 298 301 303 301 305 308 318
86 87 86 85 81 71 67 65 51 44 38 38 36 32 31 20 10 354 340 340 358 342 337 336 330 332 331 330 322 320 318 327 324 323 322 322 329 326 296 287 298 318 311 303 298 297 300 308 312 311 310 309 309 309 309 306 305 303 300 299 301 301 299 298 296 295 293 293 294 296 298 299 306 308
95 94 91 87 82 77 71 67 63 52 38 34 37 29 27 30 10 349 332 322 353 342 328 326 323 323 324 324 322 323 326 328 323 322 323 323 327 304 303 324 323 306 305 311 317 322 318 312 306 303 304 308 310 309 308 308 305 301 300 299 298 297 295 293 293 291 291 290 291 291 293 296 301 304
98 92 84 72 68 66 75 68 56 57 53 33 28 26 20 28 5 333 321 314 315 334 325 320 316 325 323 323 326 329 327 325 321 326 324 325 321 322 333 338 341 348 341 347 334 322 315 309 305 301 307 310 309 308 305 302 300 299 298 293 289 289 290 289 287 287 287 289 288 289 289 292 296 299
93 87 84 80 74 66 58 55 58 48 40 42 38 28 16 16 5 339 322 315 316 320 328 318 320 322 327 324 331 329 329 327 328 325 327 327 328 327 329 336 333 347 354 342 326 313 305 302 302 305 301 301 300 296 295 293 293 291 289 284 280 282 285 286 284 282 284 284 287 287 286 288 289 291
92 83 81 80 73 62 62 50 45 36 30 26 29 23 16 5 351 339 321 319 314 316 325 326 322 323 332 323 332 332 331 329 329 328 328 332 329 322 329 332 332 340 344 328 311 306 302 301 302 300 296 294 294 293 292 292 289 286 283 277 271 271 280 285 284 282 278 279 281 282 284 283 284 286
100 92 85 82 78 66 64 61 51 36 26 20 27 8 5 348 338 327 316 310 316 318 321 326 326 330 330 329 330 332 332 330 329 327 331 332 332 327 324 325 328 332 331 318 312 308 310 310 307 303 301 300 295 294 294 292 290 287 283 280 273 271 275 276 277 274 274 276 276 277 278 280 281 281
100 95 91 82 74 70 65 52 48 40 20 19 20 5 358 342 345 329 316 312 315 316 317 330 329 330 328 330 329 331 332 332 330 330 328 327 326 325 327 331 329 332 323 321 322 321 322 317 313 316 315 309 302 297 295 291 289 285 284 279 276 274 273 277 276 270 268 269 274 274 274 273 274 276
101 95 85 80 72 60 61 50 40 32 21 13 13 4 354 345 346 335 326 325 323 319 321 324 326 329 330 329 329 336 334 332 330 331 331 329 326 325 324 326 334 335 334 334 334 336 333 328 326 316 308 308 307 299 293 290 283 280 276 275 272 272 275 278 278 276 270 268 267 271 270 268 269 272
104 95 86 80 69 60 53 46 35 24 15 11 6 6 349 343 342 335 334 332 328 322 326 326 329 336 336 332 336 340 337 332 331 332 332 328 328 327 330 334 337 338 337 337 335 333 332 328 316 315 319 311 303 297 293 286 279 272 270 267 266 263 270 275 280 279 276 270 268 270 270 270 270 270
104 97 90 83 72 59 49 44 34 19 12 8 4 4 347 344 342 340 343 338 333 335 332 332 335 334 337 337 336 339 337 333 332 333 331 333 332 330 337 339 339 336 333 335 335 326 319 315 324 328 313 302 296 304 307 301 291 275 268 276 280 277 273 280 282 281 279 275 270 270 269 264 264 267
112 102 95 83 69 59 50 41 36 23 8 358 5 3 349 345 344 346 345 343 344 342 340 338 341 338 336 340 338 333 337 336 335 337 332 327 330 336 338 339 335 335 336 335 333 331 331 334 333 328 324 320 328 322 314 316 306 307 49 9 280 278 281 285 287 285 280 276 272 270 269 263 255 259
125 110 96 82 76 77 85 65 47 40 351 348 1 358 350 348 351 351 350 348 349 346 340 343 341 338 341 343 341 340 344 344 336 330 329 322 323 329 330 333 345 347 339 336 333 335 335 333 333 331 329 329 327 321 317 309 303 345 333 325 316 303 294 283 280 280 278 275 272 269 269 265 255 253
130 126 111 108 119 139 148 141 158 160 150 319 340 347 352 354 358 357 353 353 351 345 344 347 343 342 342 344 342 339 340 333 330 328 329 327 328 324 322 324 346 353 346 337 332 330 334 332 328 329 327 327 324 321 317 326 339 328 322 315 305 295 287 280 276 276 275 273 270 269 267 266 258 250
146 141 132 135 175 187 180 171 166 166 177 188 215 248 279 318 353 2 354 356 349 348 341 340 343 342 341 341 339 342 338 335 332 329 328 329 332 332 333 334 337 354 350 339 331 328 332 332 327 326 325 324 323 320 322 329 319 316 318 313 306 301 291 283 278 276 275 271 268 264 265 266 260 251
148 143 139 125 104 56 32 32 160 178 178 217 217 209 210 215 233 284 344 346 350 345 337 339 344 340 344 336 340 342 337 334 328 329 330 334 331 329 332 335 339 346 349 337 330 323 332 331 327 322 324 321 323 322 312 306 317 320 311 302 300 297 294 285 278 277 275 272 265 260 261 263 262 253
151 144 148 144 136 109 216 235 48 20 151 187 213 240 205 199 199 201 220 245 297 326 324 336 333 344 338 333 342 339 332 327 327 328 331 333 328 330 328 335 337 345 345 338 333 325 328 333 329 323 321 327 326 320 319 329 321 308 301 300 300 300 294 283 277 275 274 270 263 258 255 258 259 253
158 159 166 152 142 124 105 50 1 19 344 10 18 21 33 52 172 188 193 205 221 251 325 331 327 332 332 332 332 330 329 331 330 329 327 325 327 331 327 326 335 340 350 355 332 320 330 333 326 323 329 329 322 320 324 316 313 315 317 316 311 302 291 280 272 273 273 270 263 254 249 250 253 250
154 152 153 143 131 131 94 54 2 336 345 352 8 7 9 20 10 31 20 13 2 353 334 326 322 318 325 326 322 319 324 326 323 323 317 320 327 325 318 320 337 342 354 356 344 326 325 332 329 327 329 327 326 327 320 325 334 336 333 328 320 310 298 283 271 270 270 270 263 251 245 243 245 243
170 171 172 161 141 132 110 106 262 307 315 313 0 2 2 2 3 27 106 218 271 293 315 321 317 315 306 296 292 292 295 302 316 317 316 325 327 323 332 337 339 345 355 17 347 332 326 331 331 325 328 330 327 324 327 329 333 332 323 319 315 311 307 289 270 265 265 265 261 249 243 241 240 237
165 176 180 165 148 150 106 114 199 297 304 306 354 357 353 359 354 8 8 214 219 239 260 271 275 273 273 273 273 275 276 275 290 314 326 337 333 330 341 345 343 346 350 8 360 336 328 336 335 329 330 332 324 330 333 333 331 329 325 324 324 318 316 315 287 268 262 258 256 246 237 238 240 234
173 123 47 317 160 141 115 123 163 308 298 323 354 349 346 356 359 1 352 343 337 320 287 275 274 279 280 276 279 274 279 288 297 336 334 333 332 335 341 339 340 335 347 11 3 342 336 333 338 334 330 326 334 331 332 330 326 329 335 335 326 319 315 310 308 291 266 255 251 245 232 233 233 233
176 154 177 220 342 44 97 117 159 289 310 328 349 337 340 353 357 359 342 337 333 335 333 335 333 326 326 331 336 339 327 317 327 341 334 333 336 335 336 337 336 340 350 19 7 344 335 339 342 345 339 337 330 329 332 329 329 331 333 328 323 318 312 307 300 296 276 252 247 239 227 229 224 241
184 172 167 159 160 123 130 146 191 216 302 311 333 326 342 350 348 342 326 324 321 315 319 324 324 323 330 333 336 343 343 341 343 341 338 337 337 334 335 336 336 338 343 357 11 343 333 334 334 345 342 334 328 329 329 332 334 333 330 324 326 322 319 313 306 298 280 251 241 235 224 218 218 238
182 183 186 167 155 174 167 192 181 214 215 281 296 305 343 346 337 312 309 317 297 308 321 325 329 336 334 339 343 345 343 342 344 338 332 336 338 336 336 335 335 332 337 354 7 342 338 334 332 334 335 334 325 326 330 329 327 328 328 325 325 321 317 323 326 316 309 264 237 230 219 215 206 228
183 189 181 160 151 171 176 192 204 216 225 225 261 21 34 325 304 291 300 295 309 323 330 334 337 339 337 340 344 344 343 343 340 331 330 332 333 334 337 336 337 333 340 342 346 346 340 337 338 334 332 331 329 333 330 328 320 326 327 328 326 318 321 334 328 324 317 314 294 219 216 208 210 213
183 179 161 115 140 163 179 199 204 229 243 241 239 109 283 267 274 268 278 300 314 331 328 332 339 336 340 339 338 341 340 338 333 329 330 329 329 331 335 331 324 332 335 334 340 349 348 338 341 338 329 325 326 333 333 336 330 329 327 333 331 320 329 335 328 327 322 311 305 189 203 200 209 210
177 178 187 125 137 165 185 218 224 232 228 267 310 274 262 264 263 268 289 320 337 323 331 337 339 338 341 337 334 336 334 330 326 327 328 327 326 329 332 331 327 335 335 339 342 349 347 341 338 333 329 323 327 337 330 323 324 326 330 336 329 328 341 336 328 322 320 308 288 257 200 197 190 193
100 69 79 105 161 189 215 237 252 246 237 237 245 250 251 252 266 280 332 335 331 331 338 341 336 335 338 336 332 329 323 318 323 334 331 328 327 331 330 330 332 337 343 342 344 352 347 346 344 342 337 329 326 330 332 323 319 332 337 338 342 344 345 345 333 333 328 323 306 266 242 279 149 175
78 75 66 64 208 224 229 234 228 239 206 197 219 229 236 254 261 315 329 335 327 333 334 335 332 335 336 334 335 328 327 331 341 340 335 331 334 335 335 333 336 342 346 345 347 352 350 349 350 345 337 326 322 330 335 333 337 333 341 349 342 330 352 349 347 342 343 344 5 18 17 358 354 355
186 159 202 216 224 295 292 262 302 297 276 240 228 229 220 232 267 276 324 332 328 315 321 328 333 337 333 331 334 339 338 342 342 343 337 334 336 337 337 334 336 340 344 345 348 354 351 350 350 350 342 338 335 343 336 334 339 338 345 350 349 352 344 350 357 360 352 344 8 20 19 13 10 357
204 192 171 197 221 222 222 223 227 227 227 230 239 251 274 272 262 253 232 230 247 283 330 323 326 328 332 337 338 337 342 344 342 342 340 339 336 339 337 338 340 339 339 343 347 351 351 352 349 350 346 346 342 337 347 354 356 348 346 350 349 348 350 353 359 2 0 350 12 25 22 19 12 4
192 204 216 219 214 218 222 226 231 225 221 229 237 242 255 269 279 289 333 324 323 335 320 325 324 323 333 331 333 338 341 344 340 345 341 337 338 339 341 341 339 341 339 341 347 350 353 351 353 349 345 343 56 358 345 355 359 359 353 354 355 354 352 354 2 5 4 12 9 16 25 23 17 5
221 213 220 227 223 225 224 226 231 234 236 242 248 255 232 258 260 298 298 286 316 336 314 308 314 328 324 325 333 335 336 337 336 343 342 337 340 341 343 342 342 340 337 341 345 350 349 352 348 350 343 354 145 211 20 10 354 360 357 352 358 358 354 352 3 13 15 14 356 14 25 26 22 17
226 235 232 237 241 236 241 238 235 238 242 244 248 257 263 270 278 260 266 283 305 298 299 298 309 317 320 327 330 330 327 328 326 341 344 340 342 342 342 343 341 339 341 343 346 349 350 352 352 349 350 351 7 77 86 51 14 3 1 4 1 358 350 346 357 10 13 14 12 11 15 20 24 26
218 224 235 240 243 238 238 239 244 245 247 244 244 248 255 263 273 276 266 284 293 291 289 305 311 310 316 318 321 317 316 315 323 338 340 341 345 340 340 341 338 336 339 345 345 348 350 355 357 355 351 354 0 0 17 82 62 22 14 5 7 358 347 350 356 9 12 9 10 15 18 11 5 5
227 230 235 237 239 240 241 241 239 238 237 239 244 252 257 259 262 265 280 277 268 274 280 293 292 300 306 310 311 308 313 319 325 330 334 339 344 342 340 338 336 335 342 345 345 346 350 356 358 359 354 354 359 359 357 359 69 53 19 16 6 13 356 353 355 2 11 7 4 9 5 5 4 353
227 235 238 241 241 243 244 243 238 238 241 247 252 255 259 262 266 267 267 264 264 278 283 279 297 300 304 318 310 313 313 315 318 324 331 337 342 342 340 338 334 338 342 343 345 346 348 354 359 358 356 354 350 351 346 353 4 44 30 36 17 6 3 11 11 7 357 1 2 344 0 14 4 353
231 233 235 241 245 245 246 243 245 244 243 245 245 248 252 259 264 271 273 275 283 280 284 289 293 310 309 301 305 305 307 312 315 320 325 334 339 338 336 334 329 332 339 340 341 344 348 351 355 355 352 348 348 339 336 339 356 26 46 34 41 19 17 17 11 4 10 0 349 328 347 308 269 343
233 241 245 245 243 245 244 246 242 239 239 241 245 248 252 256 263 268 272 271 271 282 289 291 289 285 285 295 297 302 300 306 311 313 324 330 331 326 329 329 320 334 338 338 338 343 347 349 350 350 341 340 338 333 339 342 352 5 67 51 52 66 30 33 30 5 3 357 343 344 345 353 15 356
223 230 235 239 244 246 247 244 242 239 238 238 242 244 254 262 266 269 271 284 291 289 283 286 291 289 288 288 289 289 295 298 302 309 316 319 319 319 311 300 323 341 337 336 341 343 346 348 338 303 293 332 340 332 346 356 359 4 10 76 92 71 72 53 70 62 19 351 355 357 358 7 2 1
227 231 236 236 236 239 240 241 240 239 236 237 242 246 248 255 263 269 278 273 262 255 265 270 271 274 284 293 301 295 289 293 298 303 304 311 314 315 313 320 334 335 331 333 340 344 340 339 334 340 342 340 349 348 358 353 348 353 356 3 91 137 98 85 74 74 67 34 25 20 8 8 6 17
228 237 239 237 238 239 241 240 239 237 238 240 244 248 253 256 262 254 253 253 250 251 257 269 284 298 305 309 309 307 299 294 293 293 297 293 298 308 313 319 325 317 322 321 332 335 337 339 341 344 340 348 352 346 350 345 337 348 353 356 354 0 123 129 87 93 90 80 81 84 65 43 7 23
236 237 241 243 242 236 237 239 240 239 240 243 244 247 248 251 250 251 255 260 263 262 268 280 291 297 300 298 299 296 294 293 295 294 292 295 295 293 299 309 305 311 312 319 329 333 338 336 342 348 344 352 350 346 345 339 339 343 352 354 345 349 359 11 148 143 112 93 80 99 101 106 118 126
240 244 245 245 244 242 239 237 237 240 244 246 246 248 247 247 251 258 258 259 264 267 269 271 279 289 294 295 295 296 298 295 287 281 280 281 289 297 301 301 305 312 310 318 321 327 335 330 337 350 341 349 348 345 339 341 334 333 344 353 351 353 359 351 359 354 10 95 156 184 133 131 141 131